QPF
0.00 0.00 0.00 0.00 0.00 0.00 0.00 0.00 0.00 0.00 0.00 0.00 0.00 0.00 0.00 0.00 0.00 0.00 0.00 0.00 0.00 0.00 0.00 0.00 0.00 0.00 0.00 0.00 0.00 0.00 0.00 0.00 0.00 0.00 0.00 0.00 0.00 0.00 0.00 0.00 0.00 0.00 0.00
0.00 0.00 0.00 0.00 0.00 0.00 0.00 0.00 0.00 0.00 0.00 0.00 0.00 0.00 0.00 0.00 0.00 0.00 0.00 0.00 0.00 0.00 0.00 0.00 0.00 0.00 0.00 0.00 0.00 0.00 0.00 0.00 0.00 0.00 0.00 0.00 0.00 0.00 0.00 0.00 0.00 0.00 0.00
0.00 0.00 0.00 0.00 0.00 0.00 0.00 0.00 0.00 0.00 0.00 0.00 0.00 0.00 0.00 0.00 0.00 0.00 0.00 0.00 0.00 0.00 0.00 0.00 0.00 0.00 0.00 0.00 0.00 0.00 0.00 0.00 0.00 0.00 0.00 0.00 0.00 0.00 0.00 0.00 0.00 0.00 0.00
0.00 0.00 0.00 0.00 0.00 0.00 0.00 0.00 0.00 0.00 0.00 0.00 0.00 0.00 0.00 0.00 0.00 0.00 0.00 0.00 0.00 0.00 0.00 0.00 0.00 0.00 0.00 0.00 0.00 0.00 0.00 0.00 0.00 0.00 0.00 0.00 0.00 0.00 0.00 0.00 0.00 0.00 0.00
0.00 0.00 0.00 0.00 0.00 0.00 0.00 0.00 0.00 0.00 0.00 0.00 0.00 0.00 0.00 0.00 0.00 0.00 0.00 0.00 0.00 0.00 0.00 0.00 0.00 0.00 0.00 0.00 0.00 0.00 0.00 0.00 0.00 0.00 0.00 0.00 0.00 0.00 0.00 0.00 0.00 0.00 0.00
0.00 0.00 0.00 0.00 0.00 0.00 0.00 0.00 0.00 0.00 0.00 0.00 0.00 0.00 0.00 0.00 0.00 0.00 0.00 0.00 0.00 0.00 0.00 0.00 0.00 0.00 0.00 0.00 0.00 0.00 0.00 0.00 0.00 0.00 0.00 0.00 0.00 0.00 0.00 0.00 0.00 0.00 0.00
0.00 0.00 0.00 0.00 0.00 0.00 0.00 0.00 0.00 0.00 0.00 0.00 0.00 0.00 0.00 0.00 0.00 0.00 0.00 0.00 0.00 0.00 0.00 0.00 0.00 0.00 0.00 0.00 0.00 0.00 0.00 0.00 0.00 0.00 0.00 0.00 0.00 0.00 0.00 0.00 0.00 0.00 0.00
0.00 0.00 0.00 0.00 0.00 0.00 0.00 0.00 0.00 0.00 0.00 0.00 0.00 0.00 0.00 0.00 0.00 0.00 0.00 0.00 0.00 0.00 0.00 0.00 0.00 0.00 0.00 0.00 0.00 0.00 0.00 0.00 0.00 0.00 0.00 0.00 0.00 0.00 0.00 0.00 0.00 0.00 0.00
0.00 0.00 0.00 0.00 0.00 0.00 0.00 0.00 0.00 0.00 0.00 0.00 0.00 0.00 0.00 0.00 0.00 0.00 0.00 0.00 0.00 0.00 0.00 0.00 0.00 0.00 0.00 0.00 0.00 0.00 0.00 0.00 0.00 0.00 0.00 0.00 0.00 0.00 0.00 0.00 0.00 0.00 0.00
0.00 0.00 0.00 0.00 0.00 0.00 0.00 0.00 0.00 0.00 0.00 0.00 0.00 0.00 0.00 0.00 0.00 0.00 0.00 0.00 0.00 0.00 0.00 0.00 0.00 0.00 0.00 0.00 0.00 0.00 0.00 0.00 0.00 0.00 0.00 0.00 0.00 0.00 0.00 0.00 0.00 0.00 0.00
0.00 0.00 0.00 0.00 0.00 0.00 0.00 0.00 0.00 0.00 0.00 0.00 0.00 0.00 0.00 0.00 0.00 0.00 0.00 0.00 0.00 0.00 0.00 0.00 0.00 0.00 0.00 0.00 0.00 0.00 0.00 0.00 0.00 0.00 0.00 0.00 0.00 0.00 0.00 0.00 0.00 0.00 0.00
0.00 0.00 0.00 0.00 0.00 0.00 0.00 0.00 0.00 0.00 0.00 0.00 0.00 0.00 0.00 0.00 0.00 0.00 0.00 0.00 0.00 0.00 0.00 0.00 0.00 0.00 0.00 0.00 0.00 0.00 0.00 0.00 0.00 0.00 0.00 0.00 0.00 0.00 0.00 0.00 0.00 0.00 0.00
0.00 0.00 0.00 0.00 0.00 0.00 0.00 0.00 0.00 0.00 0.00 0.00 0.00 0.00 0.00 0.00 0.00 0.00 0.00 0.00 0.00 0.00 0.00 0.00 0.00 0.00 0.00 0.00 0.00 0.00 0.00 0.00 0.00 0.00 0.00 0.00 0.00 0.00 0.00 0.00 0.00 0.00 0.00
0.00 0.00 0.00 0.00 0.00 0.00 0.00 0.00 0.00 0.00 0.00 0.00 0.00 0.00 0.00 0.00 0.00 0.00 0.00 0.00 0.00 0.00 0.00 0.00 0.00 0.00 0.00 0.00 0.00 0.00 0.00 0.00 0.00 0.00 0.00 0.00 0.00 0.00 0.00 0.00 0.00 0.00 0.00
0.00 0.00 0.00 0.00 0.00 0.00 0.00 0.00 0.00 0.00 0.00 0.00 0.00 0.00 0.00 0.00 0.00 0.00 0.00 0.00 0.00 0.00 0.00 0.00 0.00 0.00 0.00 0.00 0.00 0.00 0.00 0.00 0.00 0.00 0.00 0.00 0.00 0.00 0.00 0.00 0.00 0.00 0.00
0.00 0.00 0.00 0.00 0.00 0.00 0.00 0.00 0.00 0.00 0.00 0.00 0.00 0.00 0.00 0.00 0.00 0.00 0.00 0.00 0.00 0.00 0.00 0.00 0.00 0.00 0.00 0.00 0.00 0.00 0.00 0.00 0.00 0.00 0.00 0.00 0.00 0.00 0.00 0.00 0.00 0.00 0.00
0.00 0.00 0.00 0.00 0.00 0.00 0.00 0.00 0.00 0.00 0.00 0.00 0.00 0.00 0.00 0.00 0.00 0.00 0.00 0.00 0.00 0.00 0.00 0.00 0.00 0.00 0.00 0.00 0.00 0.00 0.00 0.00 0.00 0.00 0.00 0.00 0.00 0.00 0.00 0.00 0.00 0.00 0.00
0.00 0.00 0.00 0.00 0.00 0.00 0.00 0.00 0.00 0.00 0.00 0.00 0.00 0.00 0.00 0.00 0.00 0.00 0.00 0.00 0.00 0.00 0.00 0.00 0.00 0.00 0.00 0.00 0.00 0.00 0.00 0.00 0.00 0.00 0.00 0.00 0.00 0.00 0.00 0.00 0.00 0.00 0.00
0.00 0.00 0.00 0.00 0.00 0.00 0.00 0.00 0.00 0.00 0.00 0.00 0.00 0.00 0.00 0.00 0.00 0.00 0.00 0.00 0.00 0.00 0.00 0.00 0.00 0.00 0.00 0.00 0.00 0.00 0.00 0.00 0.00 0.00 0.00 0.00 0.00 0.00 0.00 0.00 0.00 0.00 0.00
0.00 0.00 0.00 0.00 0.00 0.00 0.00 0.00 0.00 0.00 0.00 0.00 0.00 0.00 0.00 0.00 0.00 0.00 0.00 0.00 0.00 0.00 0.00 0.00 0.00 0.00 0.00 0.00 0.00 0.00 0.00 0.00 0.00 0.00 0.00 0.00 0.00 0.00 0.00 0.00 0.00 0.00 0.00
0.00 0.00 0.00 0.00 0.00 0.00 0.00 0.00 0.00 0.00 0.00 0.00 0.00 0.00 0.00 0.00 0.00 0.00 0.00 0.00 0.00 0.00 0.00 0.00 0.00 0.00 0.00 0.00 0.00 0.00 0.00 0.00 0.00 0.00 0.00 0.00 0.00 0.00 0.00 0.00 0.00 0.00 0.00
0.00 0.00 0.00 0.00 0.00 0.00 0.00 0.00 0.00 0.00 0.00 0.00 0.00 0.00 0.00 0.00 0.00 0.00 0.00 0.00 0.00 0.00 0.00 0.00 0.00 0.00 0.00 0.00 0.00 0.00 0.00 0.00 0.00 0.00 0.00 0.00 0.00 0.00 0.00 0.00 0.00 0.00 0.00
0.00 0.00 0.00 0.00 0.00 0.00 0.00 0.00 0.00 0.00 0.00 0.00 0.00 0.00 0.00 0.00 0.00 0.00 0.00 0.00 0.00 0.00 0.00 0.00 0.00 0.00 0.00 0.00 0.00 0.00 0.00 0.00 0.00 0.00 0.00 0.00 0.00 0.00 0.00 0.00 0.00 0.00 0.00
0.00 0.00 0.00 0.00 0.00 0.00 0.00 0.00 0.00 0.00 0.00 0.00 0.00 0.00 0.00 0.00 0.00 0.00 0.00 0.00 0.00 0.00 0.00 0.00 0.00 0.00 0.00 0.00 0.00 0.00 0.00 0.00 0.00 0.00 0.00 0.00 0.00 0.00 0.00 0.00 0.00 0.00 0.00
0.00 0.00 0.00 0.00 0.00 0.00 0.00 0.00 0.00 0.00 0.00 0.00 0.00 0.00 0.00 0.00 0.00 0.00 0.00 0.00 0.00 0.00 0.00 0.00 0.00 0.00 0.00 0.00 0.00 0.00 0.00 0.00 0.00 0.00 0.00 0.00 0.00 0.00 0.00 0.00 0.00 0.00 0.00
0.00 0.00 0.00 0.00 0.00 0.00 0.00 0.00 0.00 0.00 0.00 0.00 0.00 0.00 0.00 0.00 0.00 0.00 0.00 0.00 0.00 0.00 0.00 0.00 0.00 0.00 0.00 0.00 0.00 0.00 0.00 0.00 0.00 0.00 0.00 0.00 0.00 0.00 0.00 0.00 0.00 0.00 0.00
MSLP
1014.81 1015.54 1015.94 1016.37 1016.69 1016.75 1016.81 1016.84 1016.92 1016.79 1016.75 1016.58 1016.27 1015.80 1015.60 1015.53 1015.36 1015.22 1015.44 1015.70 1015.62 1015.73 1015.62 1015.37 1015.13 1014.97 1014.89 1014.63 1014.56 1014.36 1013.91 1013.24 1012.86 1012.29 1011.00 1010.90 1011.09 1010.89 1010.83 1010.90 1010.98 1011.13 1011.13
1014.72 1015.33 1015.70 1016.17 1016.57 1016.68 1016.83 1016.83 1016.84 1016.81 1016.69 1016.77 1016.71 1016.29 1016.06 1015.87 1015.61 1015.47 1015.49 1015.54 1015.55 1015.53 1015.53 1015.36 1015.27 1015.07 1015.01 1014.84 1014.56 1014.45 1014.25 1013.57 1013.22 1012.83 1012.01 1010.86 1010.89 1010.83 1010.89 1010.97 1011.03 1011.18 1011.23
1014.31 1014.99 1015.44 1015.88 1016.33 1016.46 1016.80 1016.87 1016.88 1016.85 1016.65 1016.71 1016.75 1016.24 1015.89 1015.52 1015.27 1014.93 1015.03 1015.10 1015.39 1015.42 1015.60 1015.41 1015.30 1015.19 1015.07 1014.83 1014.76 1014.61 1014.50 1014.13 1013.76 1013.63 1013.28 1011.71 1010.91 1010.91 1010.80 1011.05 1011.08 1011.18 1011.14
1014.78 1015.09 1015.45 1015.69 1015.97 1016.42 1016.84 1016.82 1016.81 1016.83 1016.73 1016.61 1016.77 1016.42 1016.05 1015.43 1015.04 1015.06 1014.97 1014.99 1014.99 1015.21 1015.42 1015.41 1015.33 1015.31 1015.11 1014.91 1014.71 1014.47 1014.51 1014.40 1014.39 1014.20 1013.70 1013.30 1012.73 1011.85 1011.09 1010.96 1011.10 1011.20 1011.15
1014.63 1015.07 1015.52 1015.93 1016.21 1016.53 1016.76 1016.83 1016.81 1016.79 1016.66 1016.57 1016.72 1016.51 1016.02 1015.57 1015.18 1015.00 1014.88 1014.75 1014.67 1014.86 1015.18 1015.34 1015.25 1015.31 1015.22 1015.02 1014.94 1014.76 1014.51 1014.35 1014.60 1014.61 1014.33 1013.92 1013.03 1012.44 1012.50 1011.78 1011.14 1011.15 1011.17
1014.65 1015.11 1015.53 1015.90 1016.02 1016.35 1016.57 1016.65 1016.64 1016.56 1016.46 1016.55 1016.51 1016.39 1016.00 1015.65 1015.27 1014.98 1014.73 1014.49 1014.45 1014.64 1014.87 1015.17 1015.23 1015.17 1015.19 1015.17 1015.02 1014.88 1014.70 1014.48 1014.33 1014.41 1014.52 1014.33 1014.03 1013.31 1013.00 1012.74 1012.54 1012.21 1011.75
1014.41 1014.87 1015.17 1015.54 1015.87 1016.10 1016.40 1016.49 1016.38 1016.37 1016.40 1016.27 1016.27 1016.18 1015.94 1015.59 1015.23 1014.92 1014.64 1014.46 1014.26 1014.27 1014.47 1014.79 1014.90 1014.90 1014.93 1015.02 1015.04 1014.97 1014.84 1014.67 1014.50 1014.33 1014.07 1014.09 1014.00 1013.88 1013.72 1013.65 1013.29 1012.91 1012.44
1013.94 1014.49 1014.95 1015.41 1015.66 1016.03 1016.19 1016.31 1016.29 1016.26 1016.25 1016.18 1016.20 1016.06 1015.84 1015.49 1015.21 1014.84 1014.66 1014.45 1014.21 1014.25 1014.39 1014.63 1014.73 1014.75 1014.78 1014.85 1014.80 1014.79 1014.71 1014.61 1014.52 1014.34 1014.19 1013.95 1013.70 1013.48 1013.34 1013.56 1013.63 1013.21 1012.56
1014.01 1014.36 1014.84 1015.26 1015.52 1015.70 1015.99 1016.17 1016.25 1016.21 1016.13 1016.15 1016.10 1015.93 1015.72 1015.54 1015.22 1014.91 1014.67 1014.42 1014.29 1014.27 1014.34 1014.41 1014.55 1014.45 1014.47 1014.43 1014.42 1014.43 1014.38 1014.29 1014.28 1014.25 1014.11 1013.92 1013.74 1013.59 1013.42 1013.61 1013.71 1013.54 1013.07
1013.82 1014.16 1014.56 1014.86 1015.18 1015.48 1015.75 1015.99 1016.13 1016.04 1016.01 1016.03 1015.99 1015.86 1015.67 1015.47 1015.19 1014.91 1014.58 1014.41 1014.27 1014.19 1014.23 1014.21 1014.23 1014.19 1014.20 1014.22 1014.20 1014.15 1014.01 1013.95 1013.91 1013.86 1013.89 1013.81 1013.67 1013.51 1013.43 1013.43 1013.34 1013.32 1013.20
1013.49 1013.84 1014.18 1014.48 1014.79 1015.15 1015.43 1015.68 1015.89 1015.95 1015.91 1015.96 1016.00 1015.86 1015.64 1015.45 1015.16 1014.89 1014.65 1014.46 1014.39 1014.31 1014.24 1014.18 1014.12 1014.04 1013.94 1013.85 1013.79 1013.75 1013.68 1013.67 1013.63 1013.59 1013.54 1013.45 1013.41 1013.37 1013.30 1013.27 1013.23 1013.19 1013.17
1013.29 1013.73 1014.11 1014.30 1014.46 1014.71 1015.05 1015.31 1015.54 1015.70 1015.79 1015.93 1015.87 1015.70 1015.51 1015.38 1015.12 1014.89 1014.65 1014.44 1014.27 1014.10 1014.03 1013.92 1013.83 1013.76 1013.69 1013.67 1013.63 1013.57 1013.50 1013.44 1013.35 1013.27 1013.22 1013.16 1013.18 1013.22 1013.19 1013.07 1012.92 1012.83 1012.79
1013.13 1013.43 1013.70 1013.88 1014.11 1014.37 1014.69 1014.94 1015.16 1015.46 1015.70 1015.88 1015.86 1015.73 1015.52 1015.49 1015.27 1015.00 1014.76 1014.51 1014.32 1014.15 1013.93 1013.80 1013.66 1013.54 1013.48 1013.43 1013.35 1013.23 1013.13 1013.14 1013.13 1013.06 1012.97 1012.84 1012.73 1012.65 1012.68 1012.75 1012.76 1012.75 1012.64
1012.87 1013.09 1013.32 1013.52 1013.72 1013.99 1014.34 1014.65 1014.96 1015.31 1015.53 1015.71 1015.78 1015.64 1015.47 1015.45 1015.30 1015.05 1014.83 1014.64 1014.39 1014.14 1013.87 1013.68 1013.53 1013.45 1013.37 1013.28 1013.24 1013.21 1013.17 1013.01 1012.85 1012.82 1012.79 1012.73 1012.73 1012.66 1012.56 1012.33 1012.18 1012.25 1012.28
1012.57 1012.79 1012.99 1013.20 1013.46 1013.73 1014.01 1014.31 1014.64 1014.98 1015.30 1015.49 1015.50 1015.45 1015.41 1015.38 1015.22 1015.03 1014.87 1014.66 1014.41 1014.15 1013.95 1013.76 1013.49 1013.30 1013.13 1013.02 1013.11 1013.19 1013.01 1012.71 1012.41 1012.27 1012.27 1012.25 1012.25 1012.33 1012.43 1012.49 1012.20 1012.00 1011.88
1011.84 1012.19 1012.49 1012.76 1012.96 1013.23 1013.50 1013.72 1014.01 1014.35 1014.68 1014.90 1014.98 1015.02 1015.06 1015.02 1015.01 1014.95 1014.81 1014.58 1014.32 1014.03 1013.85 1013.61 1013.41 1013.26 1013.08 1013.02 1013.26 1013.32 1013.00 1012.64 1012.36 1012.04 1011.89 1011.86 1011.75 1011.68 1011.76 1011.73 1011.80 1011.87 1011.67
1011.49 1011.89 1012.26 1012.59 1012.88 1013.11 1013.24 1013.34 1013.50 1013.79 1014.19 1014.41 1014.52 1014.59 1014.66 1014.72 1014.71 1014.65 1014.53 1014.32 1014.09 1013.92 1013.70 1013.49 1013.34 1013.14 1012.98 1012.85 1012.93 1012.88 1012.71 1012.34 1011.98 1011.79 1011.61 1011.46 1011.32 1011.25 1011.29 1011.23 1011.10 1011.04 1011.04
1011.40 1011.71 1011.99 1012.24 1012.41 1012.55 1012.75 1012.99 1013.21 1013.47 1013.72 1013.91 1013.97 1014.08 1014.22 1014.35 1014.47 1014.53 1014.36 1014.14 1013.89 1013.72 1013.55 1013.41 1013.17 1012.94 1012.62 1012.48 1012.45 1012.44 1012.28 1011.83 1011.48 1011.35 1011.12 1011.04 1010.95 1010.89 1010.90 1010.87 1010.68 1010.46 1010.08
1011.08 1011.49 1011.82 1012.08 1012.20 1012.32 1012.32 1012.44 1012.63 1012.99 1013.32 1013.46 1013.56 1013.66 1013.87 1013.98 1013.97 1013.84 1013.65 1013.53 1013.58 1013.45 1013.25 1013.00 1012.91 1012.71 1012.37 1012.24 1012.10 1012.15 1011.83 1011.51 1011.29 1011.07 1010.76 1010.65 1010.61 1010.64 1010.66 1010.71 1010.50 1010.14 1009.49
1011.31 1011.64 1011.88 1012.19 1012.33 1012.24 1012.20 1012.19 1012.27 1012.33 1012.49 1012.93 1013.09 1013.06 1013.35 1013.53 1013.41 1013.27 1013.19 1013.24 1013.19 1013.04 1012.85 1012.50 1012.28 1012.18 1011.92 1011.53 1011.39 1011.34 1011.32 1010.90 1010.64 1010.39 1010.14 1010.06 1010.15 1010.36 1010.51 1010.53 1010.27 1009.77 1009.16
1011.25 1011.69 1011.94 1011.93 1011.96 1012.07 1012.19 1012.32 1012.47 1012.50 1012.62 1012.85 1012.99 1013.03 1013.06 1013.19 1013.11 1012.92 1012.73 1012.50 1012.53 1012.43 1012.23 1011.90 1011.63 1011.32 1010.99 1010.73 1010.54 1010.61 1010.65 1010.33 1010.03 1009.74 1009.51 1009.39 1009.42 1009.47 1009.75 1009.87 1009.73 1009.32 1009.00
1011.33 1011.76 1011.97 1011.99 1012.16 1012.42 1012.60 1012.54 1012.42 1012.47 1012.66 1012.73 1012.79 1012.75 1012.70 1012.60 1012.47 1012.42 1012.28 1011.96 1011.87 1011.74 1011.57 1011.28 1010.86 1010.50 1010.25 1009.92 1009.78 1009.77 1009.90 1009.99 1009.93 1009.51 1009.14 1008.88 1008.79 1008.93 1008.97 1009.01 1008.81 1008.58 1008.39
1011.58 1011.80 1011.86 1011.93 1011.93 1012.16 1012.42 1012.41 1012.35 1012.37 1012.47 1012.45 1012.33 1012.13 1011.88 1011.72 1011.71 1011.67 1011.50 1011.34 1011.19 1010.98 1010.76 1010.66 1010.38 1010.01 1009.72 1009.44 1009.22 1009.03 1008.94 1009.01 1009.13 1008.85 1008.59 1008.23 1008.17 1008.14 1008.11 1008.10 1007.81 1007.68 1007.50
1011.96 1012.01 1011.99 1011.99 1012.03 1011.94 1011.94 1012.04 1012.08 1012.03 1011.96 1011.83 1011.68 1011.53 1011.35 1011.15 1010.97 1010.78 1010.70 1010.56 1010.49 1010.37 1010.25 1010.12 1009.91 1009.48 1009.17 1008.96 1008.71 1008.49 1008.30 1008.15 1008.03 1007.88 1007.67 1007.55 1007.33 1007.27 1007.07 1006.92 1006.72 1006.52 1006.40
1012.19 1012.39 1012.24 1012.13 1012.07 1012.04 1011.72 1011.58 1011.66 1011.68 1011.63 1011.45 1011.26 1011.12 1010.97 1010.73 1010.47 1010.27 1009.97 1009.65 1009.29 1009.37 1009.40 1009.31 1009.32 1009.14 1008.69 1008.39 1008.21 1008.22 1008.01 1007.87 1007.77 1007.63 1007.33 1007.02 1006.64 1006.33 1006.08 1005.82 1005.61 1005.38 1005.31
1012.57 1012.59 1012.40 1012.17 1011.96 1011.94 1011.85 1011.48 1011.45 1011.47 1011.41 1011.05 1010.76 1010.58 1010.39 1010.16 1009.90 1009.63 1009.21 1009.02 1008.93 1008.87 1008.94 1008.84 1008.93 1008.57 1008.30 1007.97 1007.66 1007.56 1007.39 1007.19 1007.08 1006.88 1006.52 1006.22 1005.92 1005.62 1005.24 1005.01 1004.77 1004.60 1004.48
Thickness
5669 5663 5659 5654 5650 5649 5647 5645 5641 5640 5638 5637 5637 5639 5635 5632 5630 5625 5618 5609 5604 5597 5591 5586 5581 5575 5569 5566 5562 5559 5562 5570 5577 5585 5602 5607 5611 5617 5621 5625 5628 5629 5631
5660 5655 5653 5648 5643 5641 5639 5637 5635 5633 5633 5629 5626 5629 5626 5624 5622 5618 5612 5604 5598 5594 5588 5584 5580 5575 5570 5568 5567 5566 5566 5571 5576 5581 5590 5604 5609 5613 5616 5619 5622 5623 5624
5655 5649 5645 5641 5637 5635 5631 5629 5627 5626 5626 5624 5620 5623 5622 5621 5618 5616 5609 5601 5593 5589 5583 5580 5578 5575 5570 5569 5567 5567 5567 5569 5574 5576 5580 5597 5607 5607 5613 5613 5616 5617 5619
5641 5639 5636 5634 5632 5627 5623 5622 5621 5618 5618 5618 5614 5614 5613 5613 5613 5608 5602 5596 5590 5585 5579 5576 5574 5572 5570 5568 5567 5568 5568 5568 5567 5571 5577 5582 5589 5597 5605 5610 5610 5610 5612
5634 5630 5627 5623 5622 5619 5615 5613 5612 5611 5611 5611 5607 5606 5606 5607 5606 5602 5596 5591 5587 5581 5576 5572 5571 5569 5568 5567 5564 5564 5566 5568 5565 5564 5567 5573 5583 5590 5589 5595 5604 5605 5606
5624 5621 5619 5617 5616 5612 5608 5606 5605 5605 5605 5603 5601 5599 5599 5598 5597 5594 5591 5588 5584 5579 5574 5569 5567 5566 5564 5563 5562 5562 5562 5564 5565 5565 5563 5565 5568 5576 5581 5583 5584 5587 5592
5617 5615 5614 5611 5608 5605 5601 5599 5600 5598 5597 5597 5595 5593 5592 5591 5589 5588 5586 5583 5581 5578 5573 5568 5565 5563 5561 5559 5558 5557 5558 5558 5560 5561 5564 5564 5564 5566 5568 5567 5570 5573 5577
5617 5611 5607 5603 5601 5597 5596 5594 5593 5591 5591 5590 5587 5585 5584 5583 5582 5582 5580 5578 5577 5573 5570 5565 5563 5561 5558 5556 5555 5554 5554 5554 5554 5555 5557 5559 5561 5563 5564 5560 5560 5562 5568
5611 5607 5603 5598 5595 5594 5591 5588 5586 5585 5584 5582 5579 5578 5577 5576 5575 5575 5574 5573 5572 5569 5565 5562 5559 5557 5555 5555 5554 5552 5552 5552 5551 5550 5550 5551 5553 5554 5555 5553 5551 5552 5553
5607 5603 5598 5595 5592 5589 5586 5582 5579 5578 5576 5574 5572 5571 5570 5569 5569 5569 5569 5568 5566 5565 5562 5559 5557 5555 5553 5551 5550 5549 5549 5548 5548 5547 5545 5545 5545 5545 5545 5545 5545 5545 5545
5605 5600 5597 5594 5590 5586 5581 5577 5573 5570 5569 5567 5565 5564 5564 5563 5563 5563 5563 5563 5561 5559 5557 5555 5553 5551 5550 5549 5547 5545 5544 5542 5541 5540 5539 5538 5538 5537 5536 5535 5535 5534 5533
5603 5596 5591 5588 5585 5581 5577 5572 5568 5565 5562 5559 5558 5557 5556 5556 5556 5557 5557 5556 5555 5555 5553 5551 5550 5548 5546 5545 5543 5541 5539 5536 5534 5533 5531 5530 5528 5526 5525 5525 5525 5524 5524
5595 5591 5586 5583 5579 5576 5572 5567 5564 5559 5555 5552 5550 5549 5548 5547 5547 5548 5548 5548 5547 5546 5545 5544 5542 5541 5539 5537 5535 5533 5531 5529 5526 5524 5523 5521 5520 5518 5516 5513 5511 5509 5509
5588 5584 5580 5577 5574 5571 5566 5561 5557 5552 5548 5544 5541 5540 5540 5538 5538 5538 5537 5536 5536 5535 5535 5534 5532 5530 5528 5526 5524 5521 5519 5518 5516 5514 5511 5508 5506 5504 5502 5502 5501 5498 5495
5581 5578 5574 5571 5568 5564 5560 5555 5550 5544 5539 5536 5533 5531 5529 5527 5526 5526 5524 5523 5523 5522 5521 5520 5520 5519 5518 5516 5512 5507 5506 5505 5505 5503 5500 5497 5493 5489 5486 5483 5483 5484 5482
5579 5574 5570 5565 5561 5557 5552 5549 5544 5539 5533 5528 5525 5523 5519 5517 5514 5512 5510 5510 5509 5509 5507 5506 5505 5503 5502 5499 5494 5490 5490 5489 5488 5487 5484 5481 5477 5474 5471 5469 5465 5463 5462
5571 5565 5560 5554 5549 5544 5541 5538 5535 5530 5522 5518 5514 5511 5507 5503 5501 5499 5496 5495 5494 5492 5491 5490 5488 5486 5484 5482 5478 5475 5473 5472 5471 5468 5466 5464 5461 5458 5454 5452 5451 5449 5446
5559 5554 5549 5544 5540 5536 5532 5527 5521 5515 5510 5506 5503 5499 5495 5490 5485 5480 5479 5479 5478 5476 5475 5472 5471 5470 5468 5465 5461 5458 5455 5455 5454 5451 5449 5446 5442 5439 5436 5434 5433 5432 5433
5549 5543 5538 5532 5526 5522 5520 5516 5510 5504 5497 5493 5489 5485 5478 5474 5471 5469 5469 5466 5462 5459 5457 5456 5452 5451 5448 5445 5442 5439 5438 5437 5434 5432 5430 5427 5423 5418 5415 5412 5411 5413 5416
5531 5525 5520 5514 5508 5505 5503 5500 5495 5492 5488 5479 5473 5469 5463 5459 5457 5455 5452 5448 5444 5442 5440 5440 5437 5433 5432 5429 5427 5422 5419 5419 5417 5415 5412 5409 5403 5396 5392 5389 5390 5394 5395
5515 5507 5501 5497 5494 5490 5485 5479 5473 5469 5465 5459 5454 5449 5445 5441 5438 5436 5434 5432 5428 5425 5423 5422 5420 5419 5416 5414 5409 5403 5400 5398 5399 5399 5396 5390 5384 5381 5374 5370 5371 5372 5373
5495 5487 5480 5476 5471 5466 5460 5455 5452 5449 5444 5440 5435 5430 5426 5424 5422 5418 5414 5413 5410 5408 5406 5405 5406 5404 5400 5398 5394 5387 5378 5374 5372 5374 5374 5371 5366 5361 5357 5354 5353 5353 5352
5472 5466 5462 5458 5454 5449 5441 5435 5432 5428 5423 5419 5416 5413 5411 5408 5405 5402 5399 5395 5392 5391 5389 5386 5385 5385 5382 5379 5375 5370 5365 5356 5347 5349 5348 5349 5347 5343 5341 5337 5337 5335 5335
5448 5444 5439 5435 5429 5427 5422 5416 5411 5408 5405 5402 5398 5395 5393 5391 5387 5384 5381 5378 5374 5370 5366 5364 5361 5363 5363 5358 5353 5349 5344 5339 5334 5330 5327 5325 5327 5323 5320 5318 5318 5316 5315
5422 5417 5415 5411 5407 5403 5400 5396 5391 5387 5384 5382 5378 5375 5373 5372 5370 5366 5365 5363 5363 5354 5350 5348 5341 5339 5341 5337 5331 5324 5320 5315 5310 5305 5303 5303 5305 5304 5302 5300 5301 5300 5298
5399 5395 5392 5390 5388 5384 5379 5376 5370 5367 5365 5364 5361 5358 5355 5354 5352 5348 5349 5348 5343 5339 5331 5326 5317 5318 5313 5309 5308 5304 5298 5294 5289 5285 5285 5283 5283 5283 5284 5284 5282 5282 5282